TimeMDT,TemperatureF,Dew PointF,Humidity,Sea Level PressureIn,VisibilityMPH,Wind Direction,Wind SpeedMPH,Gust SpeedMPH,PrecipitationIn,Events,Conditions,WindDirDegrees,DateUTC
12:56 AM,21.9,9.0,58,30.31,-9999.0,Calm,Calm,-,N/A,,Unknown,0,2012-10-07 06:56:00
1:56 AM,21.0,9.0,60,30.29,-9999.0,Calm,Calm,-,N/A,,Unknown,0,2012-10-07 07:56:00
2:56 AM,23.0,10.9,60,30.27,-9999.0,NW,3.5,-,N/A,,Unknown,310,2012-10-07 08:56:00
3:56 AM,26.1,15.1,63,30.23,-9999.0,Calm,Calm,-,N/A,,Unknown,0,2012-10-07 09:56:00
4:56 AM,24.1,15.1,69,30.21,-9999.0,Calm,Calm,-,N/A,,Unknown,0,2012-10-07 10:56:00
5:56 AM,19.9,12.9,74,30.26,-9999.0,Calm,Calm,-,N/A,,Unknown,0,2012-10-07 11:56:00
6:56 AM,21.0,12.9,71,30.29,-9999.0,WNW,4.6,-,N/A,,Unknown,300,2012-10-07 12:56:00
7:56 AM,19.0,12.0,74,30.30,-9999.0,Calm,Calm,-,N/A,,Unknown,0,2012-10-07 13:56:00
8:56 AM,28.0,16.0,61,30.28,-9999.0,Calm,Calm,-,N/A,,Unknown,0,2012-10-07 14:56:00
9:56 AM,33.1,21.0,61,30.26,-9999.0,East,3.5,-,N/A,,Unknown,100,2012-10-07 15:56:00
10:56 AM,36.0,23.0,59,30.24,-9999.0,Variable,4.6,-,N/A,,Unknown,0,2012-10-07 16:56:00
11:56 AM,39.0,21.9,50,30.22,-9999.0,East,3.5,-,N/A,,Unknown,90,2012-10-07 17:56:00
12:56 PM,41.0,24.1,51,30.21,-9999.0,Variable,3.5,-,N/A,,Unknown,0,2012-10-07 18:56:00
1:56 PM,43.0,23.0,45,30.19,-9999.0,ESE,6.9,-,N/A,,Unknown,110,2012-10-07 19:56:00
2:56 PM,46.0,21.9,39,30.13,-9999.0,Variable,4.6,-,N/A,,Unknown,0,2012-10-07 20:56:00
3:56 PM,48.9,12.9,24,30.09,-9999.0,Variable,6.9,-,N/A,,Unknown,0,2012-10-07 21:56:00
4:56 PM,48.9,14.0,25,30.09,-9999.0,Variable,6.9,-,N/A,,Unknown,0,2012-10-07 22:56:00
5:56 PM,46.0,15.1,29,30.13,-9999.0,Variable,4.6,-,N/A,,Unknown,0,2012-10-07 23:56:00
6:56 PM,39.9,16.0,38,30.15,-9999.0,Variable,3.5,-,N/A,,Unknown,0,2012-10-08 00:56:00
7:56 PM,30.0,14.0,51,30.24,-9999.0,Variable,3.5,-,N/A,,Unknown,0,2012-10-08 01:56:00
8:56 PM,34.0,16.0,48,30.16,-9999.0,WNW,4.6,-,N/A,,Unknown,290,2012-10-08 02:56:00
9:56 PM,27.0,15.1,61,30.19,-9999.0,Calm,Calm,-,N/A,,Unknown,0,2012-10-08 03:56:00
10:56 PM,26.1,14.0,60,30.19,-9999.0,Calm,Calm,-,N/A,,Unknown,0,2012-10-08 04:56:00
11:56 PM,24.1,12.9,62,30.17,-9999.0,Calm,Calm,-,N/A,,Unknown,0,2012-10-08 05:56:00